Miscellaneous Local Product
Issued by NWS North Platte, NE

Home | Current Version | Previous Version | Text Only | Print | Product List | Glossary On
Versions: 1 2 3 4 5 6 7 8 9 10 11 12 13 14 15 16 17 18 19 20 21 22 23 24 25 26 27 28 29 30 31 32 33 34 35 36 37 38 39 40 41 42 43 44 45 46 47 48 49 50
006
AXUS43 KLBF 181910
MISLBF


WESTERN AND NORTH CENTRAL NEBRASKA HOURLY WEATHER ROUNDUP
NATIONAL WEATHER SERVICE NORTH PLATTE NE
100 PM CST SAT FEB 18 2017

NOTE: "FAIR" INDICATES FEW OR NO CLOUDS BELOW 12,000 FEET WITH NO
SIGNIFICANT WEATHER AND/OR OBSTRUCTIONS TO VISIBILITY.

NOTE: STATIONS NOT REPORTING VARIABLES SUCH AS SKY/WEATHER OR
PRESSURE ARE PROVIDED BY RAWS AND APRS NETWORKS AND ARE NOT UNDER
NATIONAL WEATHER SERVICE QUALITY CONTROL.

...OBSERVATIONS IN AND NEAR THE EASTERN PANHANDLE OF NEBRASKA...

CITY           SKY/WX    TMP DP  RH WIND       PRES   REMARKS
PINE RIDGE     MOSUNNY   48  31  51 S23       29.68F
CHADRON        SUNNY     61  28  28 S15G23    29.67F
ALLIANCE       CLOUDY    58  26  29 S20G28    29.71F
SIDNEY         CLOUDY    56  27  32 S15       29.75F
CRESCENT LAKE    N/A     56  27  32 S13G20      N/A
$$

...OBSERVATIONS IN NORTHERN NEBRASKA AND FAR SOUTHERN SOUTH DAKOTA...

CITY           SKY/WX    TMP DP  RH WIND       PRES   REMARKS
WINNER         FAIR      59  32  36 S16       29.74F
VALENTINE        N/A     59  26  28 S16       29.73F
THEDFORD       MOSUNNY   60  29  30 S14G21    29.76F
AINSWORTH      SUNNY     60  31  32 S16       29.76F
O`NEILL        SUNNY     62  32  32 SE9       29.79F
ORD            SUNNY     60  29  30 SE12      29.79F
BROKEN BOW     SUNNY     59  30  33 SE12      29.78F
VALENTINE NWR    N/A     56  26  31 S15         N/A
HALSEY           N/A     60  25  26 SE9         N/A
CHAMBERS         N/A     61  35  37 E5          N/A
EWING            N/A     61  36  39 S5          N/A
$$

...OBSERVATIONS IN SOUTHWEST NEBRASKA AND FAR NORTHEAST COLORADO...

CITY           SKY/WX    TMP DP  RH WIND       PRES   REMARKS
HOLYOKE        FAIR      61  30  31 S14       29.76F
IMPERIAL       PTSUNNY   57  29  34 SE17      29.75F
OGALLALA       SUNNY     58  29  33 S10       29.76F
NORTH PLATTE   SUNNY     62  28  27 S14       29.76F
MCCOOK         SUNNY     61  34  36 SE8       29.78F
LEXINGTON      SUNNY     60  31  33 S3        29.79F
STAPLETON        N/A     60  29  31 E3G12       N/A
GOTHENBURG       N/A     59  30  33 E8          N/A
CALLAWAY         N/A     59  31  35 S14         N/A
$$

...OBSERVATIONS IN CENTRAL LINCOLN COUNTY AREA...

CITY           SKY/WX    TMP DP  RH WIND       PRES   REMARKS
N.P. AIRPORT   SUNNY     62  28  27 S14       29.76F
N.P. DOWNTOWN    N/A     57  33  40 CALM        N/A
N.P. SOUTHEAST   N/A     58  31  35 SE3         N/A
N.P. HILLCREST   N/A     58  32  38 SE8         N/A
$$

...SOME OBSERVATIONS FROM AROUND THE REGION...

CITY           SKY/WX    TMP DP  RH WIND       PRES   REMARKS
LARAMIE        CLOUDY    53  23  31 SW23G29   29.74F
CHEYENNE       CLOUDY    56  20  24 S15G24    29.74F
DENVER         CLOUDY    60  22  23 SE5       29.74F
AKRON          CLOUDY    62  21  20 S14G23    29.75F
SCOTTSBLUFF    SUNNY     60  26  27 S7        29.71F
RAPID CITY     SUNNY     61  30  31 S21       29.61F
BISMARCK       CLOUDY    37  31  78 NE12      29.72F WCI  29
PIERRE         PTSUNNY   55  32  41 SE15      29.70F
SIOUX FALLS    MOSUNNY   56  40  55 E5        29.79F
OMAHA          MOSUNNY   63  36  36 VRB3      29.81F
GRAND ISLAND   SUNNY     60  32  34 E9        29.81F
KANSAS CITY    MOSUNNY   67  40  37 VRB3      29.79F
WICHITA        MOSUNNY   70  48  45 S9        29.79F
OKLAHOMA CITY  MOSUNNY   65  50  58 E12       29.81F
DALLAS         MOSUNNY   76  53  44 S7        29.75F
AMARILLO       CLOUDY    67  32  27 S9        29.82F
DODGE CITY     SUNNY     71  33  24 S12       29.77F
HAYS           SUNNY     61  38  42 SE9       29.77F
GOODLAND       PTSUNNY   59  32  36 SE13      29.77F
$$




USA.gov is the U.S. government's official web portal to all federal, state and local government web resources and services.